| time (UTC) | temp F | wind direction | speed knots | gust knots | rain 1hr in | rain 24hr in | rain mn in | humidity % | barometer mb |
| 20260504040539 | 49 | 140 | 1.7 | 1.7 | 0.00 | 0.00 | 0.00 | 90 | 1011.6 |
| 20260504040035 | 49 | 131 | 2.6 | 2.6 | 0.00 | 0.00 | 0.00 | 90 | 1011.7 |
| 20260504035532 | 49 | 140 | 0.0 | 0.0 | 0.00 | 0.00 | 0.00 | 88 | 1011.6 |
| 20260504035029 | 49 | 128 | 0.0 | 0.0 | 0.00 | 0.00 | 0.00 | 86 | 1011.9 |
| 20260504034527 | 49 | 139 | 0.0 | 0.0 | 0.00 | 0.00 | 0.00 | 86 | 1011.6 |
| 20260504034023 | 49 | 135 | 0.0 | 0.0 | 0.00 | 0.00 | 0.00 | 84 | 1011.7 |
| 20260504033521 | 50 | 141 | 0.0 | 0.0 | 0.00 | 0.00 | 0.00 | 85 | 1011.4 |
| 20260504033018 | 50 | 136 | 0.0 | 0.0 | 0.00 | 0.00 | 0.00 | 83 | 1011.3 |
| 20260504032515 | 50 | 136 | 0.0 | 0.0 | 0.00 | 0.00 | 0.00 | 81 | 1011.3 |
| 20260504032012 | 50 | 102 | 0.0 | 0.0 | 0.00 | 0.00 | 0.00 | 81 | 1011.5 |
| 20260504031509 | 50 | 131 | 0.0 | 0.0 | 0.00 | 0.00 | 0.00 | 79 | 1011.5 |
| 20260504031005 | 50 | 126 | 0.9 | 0.9 | 0.00 | 0.00 | 0.00 | 78 | 1011.7 |
| 20260504030503 | 50 | 130 | 0.0 | 0.0 | 0.00 | 0.00 | 0.00 | 78 | 1011.6 |
| 20260504025958 | 50 | 133 | 0.0 | 0.0 | 0.00 | 0.00 | 0.00 | 79 | 1011.7 |
| 20260504025455 | 50 | 146 | 1.7 | 1.7 | 0.00 | 0.00 | 0.00 | 78 | 1011.6 |
| 20260504024952 | 50 | 136 | 0.0 | 0.0 | 0.00 | 0.00 | 0.00 | 77 | 1011.5 |
| 20260504024449 | 50 | 132 | 0.0 | 0.0 | 0.00 | 0.00 | 0.00 | 76 | 1011.7 |
| 20260504023946 | 50 | 130 | 0.0 | 0.0 | 0.00 | 0.00 | 0.00 | 77 | 1011.5 |
| 20260504023443 | 50 | 133 | 0.0 | 0.0 | 0.00 | 0.00 | 0.00 | 75 | 1011.6 |
| 20260504022938 | 50 | 133 | 0.0 | 0.0 | 0.00 | 0.00 | 0.00 | 74 | 1011.5 |
| 20260504022435 | 50 | 133 | 0.0 | 0.0 | 0.00 | 0.00 | 0.00 | 75 | 1011.5 |
| 20260504021932 | 50 | 134 | 0.0 | 0.0 | 0.00 | 0.00 | 0.00 | 75 | 1011.5 |
| 20260504021429 | 51 | 133 | 0.0 | 0.0 | 0.00 | 0.00 | 0.00 | 75 | 1011.4 |
| 20260504020926 | 51 | 141 | 0.0 | 0.0 | 0.00 | 0.00 | 0.00 | 75 | 1011.1 |
| 20260504020423 | 51 | 139 | 1.7 | 1.7 | 0.00 | 0.00 | 0.00 | 75 | 1011.0 |
| 20260504015919 | 51 | 142 | 1.7 | 1.7 | 0.00 | 0.00 | 0.00 | 75 | 1011.1 |
| 20260504015415 | 51 | 140 | 1.7 | 1.7 | 0.00 | 0.00 | 0.00 | 74 | 1010.7 |
| 20260504014912 | 51 | 141 | 0.9 | 0.9 | 0.00 | 0.00 | 0.00 | 74 | 1010.7 |
| 20260504014408 | 51 | 138 | 1.7 | 2.6 | 0.00 | 0.00 | 0.00 | 74 | 1010.9 |
| 20260504013905 | 51 | 137 | 0.0 | 0.0 | 0.00 | 0.00 | 0.00 | 73 | 1010.8 |
| 20260504013403 | 51 | 137 | 0.0 | 0.0 | 0.00 | 0.00 | 0.00 | 71 | 1010.9 |
| 20260504012859 | 51 | 137 | 0.0 | 0.0 | 0.00 | 0.00 | 0.00 | 71 | 1010.8 |
| 20260504012357 | 51 | 137 | 0.0 | 0.0 | 0.00 | 0.00 | 0.00 | 71 | 1011.0 |
| 20260504011854 | 51 | 140 | 0.9 | 0.9 | 0.00 | 0.00 | 0.00 | 71 | 1011.0 |
| 20260504011351 | 51 | 136 | 0.9 | 0.9 | 0.00 | 0.00 | 0.00 | 72 | 1011.0 |
| 20260504010847 | 51 | 151 | 1.7 | 1.7 | 0.00 | 0.00 | 0.00 | 70 | 1011.0 |
| 20260504010342 | 51 | 138 | 0.9 | 0.9 | 0.00 | 0.00 | 0.00 | 70 | 1010.9 |
| 20260504005839 | 51 | 141 | 1.7 | 1.7 | 0.00 | 0.00 | 0.00 | 69 | 1011.1 |
| 20260504005336 | 52 | 140 | 1.7 | 1.7 | 0.00 | 0.00 | 0.00 | 68 | 1011.0 |
| 20260504004833 | 52 | 134 | 0.9 | 0.9 | 0.00 | 0.00 | 0.00 | 67 | 1011.0 |
| 20260504004331 | 52 | 137 | 0.9 | 0.9 | 0.00 | 0.00 | 0.00 | 66 | 1011.1 |
| 20260504003827 | 53 | 133 | 0.9 | 0.9 | 0.00 | 0.00 | 0.00 | 65 | 1011.0 |
| 20260504003324 | 53 | 137 | 0.9 | 0.9 | 0.00 | 0.00 | 0.00 | 63 | 1011.3 |
| 20260504002821 | 53 | 134 | 0.9 | 0.9 | 0.00 | 0.00 | 0.00 | 61 | 1011.0 |
| 20260504002318 | 53 | 136 | 0.9 | 1.7 | 0.00 | 0.00 | 0.00 | 61 | 1010.9 |
| 20260504001816 | 54 | 137 | 0.9 | 0.9 | 0.00 | 0.00 | 0.00 | 59 | 1010.9 |
| 20260504001313 | 54 | 136 | 0.9 | 1.7 | 0.00 | 0.00 | 0.00 | 59 | 1011.1 |
| 20260504000809 | 54 | 136 | 0.9 | 0.9 | 0.00 | 0.00 | 0.00 | 60 | 1011.0 |
| 20260504000306 | 55 | 135 | 0.0 | 0.0 | 0.00 | 0.00 | 0.00 | 57 | 1011.1 |
| 20260503235804 | 56 | 127 | 0.0 | 0.0 | 0.00 | 0.00 | 0.00 | 55 | 1011.2 |
| 20260503235304 | 57 | 136 | 0.0 | 0.0 | 0.00 | 0.00 | 0.00 | 50 | 1011.1 |
| 20260503234759 | 57 | 137 | 0.9 | 0.9 | 0.00 | 0.00 | 0.00 | 49 | 1010.6 |
| 20260503234257 | 58 | 133 | 0.0 | 0.0 | 0.00 | 0.00 | 0.00 | 48 | 1010.9 |
| 20260503233754 | 59 | 133 | 0.0 | 0.0 | 0.00 | 0.00 | 0.00 | 45 | 1010.9 |
| 20260503233249 | 59 | 134 | 0.0 | 0.9 | 0.00 | 0.00 | 0.00 | 47 | 1010.7 |
| 20260503232747 | 60 | 127 | 0.0 | 0.9 | 0.00 | 0.00 | 0.00 | 45 | 1010.9 |
| 20260503232244 | 60 | 131 | 0.9 | 0.9 | 0.00 | 0.00 | 0.00 | 45 | 1011.2 |
| 20260503231742 | 60 | 118 | 1.7 | 1.7 | 0.00 | 0.00 | 0.00 | 38 | 1011.1 |
| 20260503231239 | 61 | 142 | 1.7 | 1.7 | 0.00 | 0.00 | 0.00 | 40 | 1011.3 |
| 20260503230734 | 61 | 140 | 0.0 | 0.0 | 0.00 | 0.00 | 0.00 | 38 | 1011.3 |
| 20260503230232 | 61 | 138 | 0.0 | 0.0 | 0.00 | 0.00 | 0.00 | 38 | 1011.2 |
| 20260503225729 | 61 | 123 | 3.5 | 4.3 | 0.00 | 0.00 | 0.00 | 37 | 1011.4 |
| 20260503225229 | 62 | 158 | 0.9 | 4.3 | 0.00 | 0.00 | 0.00 | 36 | 1011.6 |
| 20260503224726 | 62 | 171 | 1.7 | 1.7 | 0.00 | 0.00 | 0.00 | 35 | 1011.5 |
| 20260503224224 | 62 | 114 | 1.7 | 2.6 | 0.00 | 0.00 | 0.00 | 37 | 1011.5 |
| 20260503223722 | 62 | 139 | 1.7 | 4.3 | 0.00 | 0.00 | 0.00 | 36 | 1011.6 |
| 20260503223219 | 62 | 117 | 2.6 | 2.6 | 0.00 | 0.00 | 0.00 | 34 | 1011.6 |
| 20260503222715 | 62 | 94 | 4.3 | 5.2 | 0.00 | 0.00 | 0.00 | 35 | 1011.7 |
| 20260503222213 | 62 | 140 | 2.6 | 2.6 | 0.00 | 0.00 | 0.00 | 35 | 1011.8 |
| 20260503221712 | 62 | 121 | 2.6 | 2.6 | 0.00 | 0.00 | 0.00 | 37 | 1011.7 |
| 20260503221209 | 62 | 125 | 3.5 | 5.2 | 0.00 | 0.00 | 0.00 | 36 | 1011.5 |
| 20260503220705 | 62 | 119 | 3.5 | 7.0 | 0.00 | 0.00 | 0.00 | 35 | 1011.5 |
| 20260503220202 | 63 | 126 | 3.5 | 4.3 | 0.00 | 0.00 | 0.00 | 36 | 1011.6 |
| 20260503215659 | 63 | 130 | 7.8 | 8.7 | 0.00 | 0.00 | 0.00 | 35 | 1011.6 |
| 20260503215155 | 63 | 132 | 0.0 | 0.9 | 0.00 | 0.00 | 0.00 | 35 | 1011.6 |
| 20260503214654 | 64 | 121 | 0.9 | 0.9 | 0.00 | 0.00 | 0.00 | 35 | 1011.6 |
| 20260503214149 | 63 | 115 | 2.6 | 2.6 | 0.00 | 0.00 | 0.00 | 35 | 1011.7 |
| 20260503213644 | 64 | 133 | 2.6 | 4.3 | 0.00 | 0.00 | 0.00 | 34 | 1011.4 |
| 20260503213140 | 63 | 163 | 2.6 | 4.3 | 0.00 | 0.00 | 0.00 | 36 | 1011.8 |
| 20260503212637 | 63 | 129 | 3.5 | 4.3 | 0.00 | 0.00 | 0.00 | 35 | 1012.1 |
| 20260503212135 | 63 | 95 | 3.5 | 4.3 | 0.00 | 0.00 | 0.00 | 38 | 1012.0 |
| 20260503211632 | 64 | 162 | 2.6 | 4.3 | 0.00 | 0.00 | 0.00 | 36 | 1011.9 |
| 20260503211127 | 64 | 168 | 2.6 | 4.3 | 0.00 | 0.00 | 0.00 | 39 | 1011.8 |
| 20260503210624 | 64 | 141 | 4.3 | 8.7 | 0.00 | 0.00 | 0.00 | 37 | 1012.1 |
| 20260503210120 | 64 | 131 | 3.5 | 4.3 | 0.00 | 0.00 | 0.00 | 35 | 1012.1 |
| 20260503205616 | 63 | 150 | 3.5 | 4.3 | 0.00 | 0.00 | 0.00 | 36 | 1011.9 |
| 20260503205113 | 65 | 154 | 0.0 | 0.9 | 0.00 | 0.00 | 0.00 | 36 | 1011.9 |
| 20260503204610 | 63 | 150 | 0.9 | 0.9 | 0.00 | 0.00 | 0.00 | 35 | 1012.3 |
| 20260503204107 | 64 | 109 | 1.7 | 1.7 | 0.00 | 0.00 | 0.00 | 35 | 1012.3 |
| 20260503203604 | 63 | 134 | 0.9 | 1.7 | 0.00 | 0.00 | 0.00 | 35 | 1012.2 |
| 20260503203101 | 63 | 155 | 1.7 | 1.7 | 0.00 | 0.00 | 0.00 | 34 | 1012.5 |
| 20260503202559 | 64 | 130 | 2.6 | 4.3 | 0.00 | 0.00 | 0.00 | 36 | 1012.2 |
| 20260503202057 | 63 | 105 | 4.3 | 5.2 | 0.00 | 0.00 | 0.00 | 35 | 1012.6 |
| 20260503201555 | 62 | 121 | 3.5 | 4.3 | 0.00 | 0.00 | 0.00 | 35 | 1012.8 |
| 20260503201052 | 63 | 138 | 4.3 | 5.2 | 0.00 | 0.00 | 0.00 | 35 | 1012.8 |
| 20260503200548 | 62 | 141 | 0.9 | 0.9 | 0.00 | 0.00 | 0.00 | 37 | 1012.9 |
| 20260503200044 | 62 | 132 | 3.5 | 5.2 | 0.00 | 0.00 | 0.00 | 40 | 1012.9 |
| 20260503195541 | 63 | 130 | 4.3 | 5.2 | 0.00 | 0.00 | 0.00 | 36 | 1012.9 |
| 20260503195038 | 62 | 130 | 0.0 | 0.0 | 0.00 | 0.00 | 0.00 | 37 | 1012.9 |
| 20260503194536 | 62 | 135 | 1.7 | 2.6 | 0.00 | 0.00 | 0.00 | 35 | 1013.1 |
| 20260503194035 | 63 | 136 | 2.6 | 2.6 | 0.00 | 0.00 | 0.00 | 35 | 1013.2 |
| 20260503193532 | 63 | 159 | 2.6 | 4.3 | 0.00 | 0.00 | 0.00 | 40 | 1013.2 |
| 20260503193027 | 62 | 130 | 0.9 | 0.9 | 0.00 | 0.00 | 0.00 | 37 | 1013.5 |
| 20260503192524 | 62 | 251 | 1.7 | 2.6 | 0.00 | 0.00 | 0.00 | 41 | 1013.6 |
| 20260503192020 | 61 | 126 | 0.0 | 0.9 | 0.00 | 0.00 | 0.00 | 36 | 1013.5 |
| 20260503191517 | 62 | 156 | 3.5 | 6.1 | 0.00 | 0.00 | 0.00 | 40 | 1013.5 |
| 20260503191014 | 63 | 143 | 3.5 | 4.3 | 0.00 | 0.00 | 0.00 | 39 | 1013.7 |
| 20260503190510 | 61 | 124 | 2.6 | 2.6 | 0.00 | 0.00 | 0.00 | 37 | 1013.9 |
| 20260503190008 | 60 | 67 | 0.0 | 0.0 | 0.00 | 0.00 | 0.00 | 41 | 1014.0 |
| 20260503185503 | 60 | 148 | 1.7 | 1.7 | 0.00 | 0.00 | 0.00 | 41 | 1014.0 |
| 20260503184958 | 60 | 124 | 0.0 | 0.9 | 0.00 | 0.00 | 0.00 | 37 | 1014.1 |
| 20260503184454 | 60 | 232 | 2.6 | 4.3 | 0.00 | 0.00 | 0.00 | 38 | 1014.1 |
| 20260503183951 | 60 | 120 | 1.7 | 1.7 | 0.00 | 0.00 | 0.00 | 38 | 1014.2 |
| 20260503183448 | 60 | 122 | 0.0 | 0.0 | 0.00 | 0.00 | 0.00 | 41 | 1014.3 |
| 20260503182944 | 60 | 140 | 0.0 | 0.9 | 0.00 | 0.00 | 0.00 | 38 | 1014.6 |
| 20260503182443 | 60 | 105 | 1.7 | 2.6 | 0.00 | 0.00 | 0.00 | 43 | 1014.6 |
| 20260503181940 | 61 | 355 | 5.2 | 7.8 | 0.00 | 0.00 | 0.00 | 37 | 1014.7 |
| 20260503181437 | 60 | 126 | 0.9 | 0.9 | 0.00 | 0.00 | 0.00 | 43 | 1015.0 |
| 20260503180933 | 60 | 34 | 2.6 | 4.3 | 0.00 | 0.00 | 0.00 | 43 | 1014.9 |
| 20260503180432 | 60 | 137 | 5.2 | 6.1 | 0.00 | 0.00 | 0.00 | 43 | 1015.0 |
| 20260503175928 | 60 | 148 | 0.9 | 0.9 | 0.00 | 0.00 | 0.00 | 42 | 1015.0 |
| 20260503175427 | 59 | 150 | 0.9 | 0.9 | 0.00 | 0.00 | 0.00 | 40 | 1015.0 |
| 20260503174922 | 58 | 136 | 1.7 | 2.6 | 0.00 | 0.00 | 0.00 | 44 | 1015.2 |
| 20260503174421 | 58 | 118 | 1.7 | 1.7 | 0.00 | 0.00 | 0.00 | 40 | 1015.2 |
| 20260503173920 | 58 | 324 | 3.5 | 7.0 | 0.00 | 0.00 | 0.00 | 45 | 1015.5 |
| 20260503173417 | 59 | 134 | 3.5 | 4.3 | 0.00 | 0.00 | 0.00 | 43 | 1015.3 |
| 20260503172914 | 57 | 122 | 0.0 | 0.9 | 0.00 | 0.00 | 0.00 | 45 | 1015.4 |
| 20260503172411 | 57 | 149 | 2.6 | 4.3 | 0.00 | 0.00 | 0.00 | 42 | 1015.7 |
| 20260503171907 | 58 | 131 | 0.9 | 0.9 | 0.00 | 0.00 | 0.00 | 45 | 1015.7 |
| 20260503171404 | 58 | 133 | 4.3 | 5.2 | 0.00 | 0.00 | 0.00 | 46 | 1015.7 |
| 20260503170902 | 58 | 353 | 5.2 | 6.1 | 0.00 | 0.00 | 0.00 | 41 | 1015.5 |
| 20260503170358 | 57 | 201 | 3.5 | 5.2 | 0.00 | 0.00 | 0.00 | 41 | 1015.8 |
| 20260503150750 | 54 | 96 | 2.6 | 4.3 | 0.00 | 0.00 | 0.00 | 46 | 1017.1 |
| 20260503150246 | 53 | 208 | 0.0 | 0.9 | 0.00 | 0.00 | 0.00 | 46 | 1017.2 |
| 20260503140211 | 50 | 145 | 0.0 | 0.0 | 0.00 | 0.00 | 0.00 | 63 | 1017.3 |
| 20260503131140 | 43 | 97 | 4.3 | 5.2 | 0.00 | 0.00 | 0.00 | 75 | 1017.4 |
| 20260503130638 | 42 | 103 | 1.7 | 2.6 | 0.00 | 0.00 | 0.00 | 79 | 1017.2 |
| 20260503130135 | 42 | 61 | 2.6 | 4.3 | 0.00 | 0.00 | 0.00 | 82 | 1017.1 |
| 20260503110527 | 28 | 132 | 0.0 | 0.0 | 0.00 | 0.00 | 0.00 | 99 | 1016.0 |
| 20260503090414 | 29 | 132 | 0.0 | 0.0 | 0.00 | 0.00 | 0.00 | 99 | 1015.2 |
| 20260503081341 | 30 | 132 | 0.0 | 0.9 | 0.00 | 0.00 | 0.00 | 99 | 1015.1 |
| 20260503080837 | 30 | 132 | 0.9 | 1.7 | 0.00 | 0.00 | 0.00 | 99 | 1015.1 |
| 20260503080335 | 30 | 133 | 0.9 | 0.9 | 0.00 | 0.00 | 0.00 | 99 | 1014.9 |
| 20260503072811 | 31 | 134 | 0.9 | 0.9 | 0.00 | 0.00 | 0.00 | 99 | 1014.8 |
| 20260503072308 | 31 | 133 | 0.9 | 0.9 | 0.00 | 0.00 | 0.00 | 99 | 1014.8 |
| 20260503071804 | 31 | 132 | 0.9 | 0.9 | 0.00 | 0.00 | 0.00 | 99 | 1014.6 |
| 20260503071302 | 31 | 132 | 0.0 | 0.0 | 0.00 | 0.00 | 0.00 | 99 | 1014.5 |
| 20260503070757 | 31 | 134 | 0.0 | 0.9 | 0.00 | 0.00 | 0.00 | 99 | 1014.7 |
| 20260503070256 | 31 | 134 | 0.9 | 0.9 | 0.00 | 0.00 | 0.00 | 99 | 1014.7 |
| 20260503060221 | 33 | 131 | 0.0 | 0.0 | 0.00 | 0.00 | 0.00 | 97 | 1014.7 |
| 20260503054708 | 33 | 134 | 0.9 | 0.9 | 0.00 | 0.00 | 0.00 | 97 | 1014.9 |
| 20260503054205 | 33 | 133 | 0.9 | 0.9 | 0.00 | 0.00 | 0.00 | 97 | 1014.6 |
| 20260503053703 | 33 | 134 | 0.0 | 0.0 | 0.00 | 0.00 | 0.00 | 96 | 1014.5 |
| 20260503053201 | 34 | 129 | 0.0 | 0.0 | 0.00 | 0.00 | 0.00 | 96 | 1014.7 |
| 20260503052657 | 34 | 129 | 0.0 | 0.0 | 0.00 | 0.00 | 0.00 | 95 | 1014.6 |
| 20260503052154 | 34 | 129 | 0.0 | 0.0 | 0.00 | 0.00 | 0.00 | 94 | 1014.5 |
| 20260503051649 | 34 | 129 | 0.0 | 0.0 | 0.00 | 0.00 | 0.00 | 94 | 1014.8 |
| 20260503051147 | 34 | 129 | 0.0 | 0.0 | 0.00 | 0.00 | 0.00 | 94 | 1014.8 |
| 20260503050643 | 34 | 129 | 0.0 | 0.0 | 0.00 | 0.00 | 0.00 | 94 | 1014.5 |
| 20260503050140 | 35 | 129 | 0.0 | 0.0 | 0.00 | 0.00 | 0.00 | 94 | 1014.5 |
| 20260503045637 | 35 | 129 | 0.0 | 0.0 | 0.00 | 0.00 | 0.00 | 95 | 1014.6 |
| 20260503045135 | 35 | 129 | 0.0 | 0.0 | 0.00 | 0.00 | 0.00 | 94 | 1014.7 |
| 20260503044631 | 35 | 129 | 0.0 | 0.0 | 0.00 | 0.00 | 0.00 | 94 | 1014.7 |
| 20260503044129 | 35 | 129 | 0.0 | 0.0 | 0.00 | 0.00 | 0.00 | 94 | 1014.5 |
| 20260503043625 | 35 | 129 | 0.0 | 0.0 | 0.00 | 0.00 | 0.00 | 93 | 1014.4 |
| 20260503043122 | 36 | 129 | 0.0 | 0.0 | 0.00 | 0.00 | 0.00 | 93 | 1014.3 |
| 20260503042619 | 36 | 129 | 0.0 | 0.0 | 0.00 | 0.00 | 0.00 | 93 | 1014.4 |
| 20260503042115 | 36 | 129 | 0.0 | 0.0 | 0.00 | 0.00 | 0.00 | 93 | 1014.4 |
| 20260503041612 | 36 | 129 | 0.0 | 0.0 | 0.00 | 0.00 | 0.00 | 92 | 1014.5 |
| 20260503041110 | 37 | 128 | 0.0 | 0.0 | 0.00 | 0.00 | 0.00 | 92 | 1014.3 |